TimeCDT,TemperatureF,Dew PointF,Humidity,Sea Level PressureIn,VisibilityMPH,Wind Direction,Wind SpeedMPH,Gust SpeedMPH,PrecipitationIn,Events,Conditions,WindDirDegrees,DateUTC
12:53 AM,80.1,75.9,87,30.01,9.0,ESE,15.0,-,N/A,,Overcast,110,2013-05-24 05:53:00
1:22 AM,80.6,75.2,84,29.99,9.0,ESE,15.0,-,N/A,,Overcast,110,2013-05-24 06:22:00
1:46 AM,80.6,75.2,84,29.99,9.0,ESE,15.0,-,N/A,,Overcast,110,2013-05-24 06:46:00
1:53 AM,80.1,75.9,87,29.99,9.0,ESE,15.0,-,N/A,,Overcast,120,2013-05-24 06:53:00
2:34 AM,80.6,75.2,84,29.99,9.0,ESE,17.3,-,N/A,,Overcast,120,2013-05-24 07:34:00
2:46 AM,80.6,75.2,84,29.99,9.0,ESE,16.1,-,N/A,,Overcast,110,2013-05-24 07:46:00
2:53 AM,80.1,75.9,87,30.00,9.0,ESE,13.8,21.9,N/A,,Overcast,110,2013-05-24 07:53:00
3:53 AM,79.0,75.0,88,29.97,9.0,ESE,17.3,-,N/A,,Partly Cloudy,110,2013-05-24 08:53:00
4:53 AM,79.0,75.0,88,30.00,10.0,ESE,12.7,-,N/A,,Mostly Cloudy,120,2013-05-24 09:53:00
5:53 AM,79.0,75.0,88,29.99,9.0,ESE,13.8,-,N/A,,Clear,120,2013-05-24 10:53:00
6:53 AM,79.0,75.0,88,30.01,8.0,SE,11.5,-,N/A,,Partly Cloudy,130,2013-05-24 11:53:00
7:53 AM,80.1,75.0,85,30.01,9.0,SE,12.7,-,N/A,,Scattered Clouds,140,2013-05-24 12:53:00
8:53 AM,82.0,73.9,76,30.05,10.0,SE,18.4,26.5,N/A,,Partly Cloudy,130,2013-05-24 13:53:00
9:15 AM,82.4,73.4,74,30.06,10.0,SE,15.0,-,N/A,,Mostly Cloudy,140,2013-05-24 14:15:00
9:27 AM,82.4,73.4,74,30.07,10.0,SE,15.0,-,N/A,,Mostly Cloudy,140,2013-05-24 14:27:00
9:53 AM,84.0,73.0,69,30.09,10.0,SE,17.3,21.9,N/A,,Partly Cloudy,140,2013-05-24 14:53:00
10:53 AM,82.9,73.0,72,30.10,10.0,SSE,8.1,-,N/A,,Mostly Cloudy,150,2013-05-24 15:53:00
11:53 AM,84.9,73.0,67,30.09,10.0,SE,13.8,19.6,N/A,,Scattered Clouds,140,2013-05-24 16:53:00
12:53 PM,84.9,73.9,69,30.08,10.0,SSE,15.0,23.0,N/A,,Clear,150,2013-05-24 17:53:00
1:53 PM,86.0,73.0,65,30.05,10.0,SE,16.1,-,N/A,,Clear,140,2013-05-24 18:53:00
2:39 PM,84.2,73.4,70,30.04,10.0,SE,16.1,-,N/A,,Mostly Cloudy,130,2013-05-24 19:39:00
2:53 PM,84.9,73.9,69,30.04,10.0,ESE,16.1,-,N/A,,Mostly Cloudy,120,2013-05-24 19:53:00
3:53 PM,84.0,73.9,72,30.03,10.0,ESE,15.0,-,N/A,,Scattered Clouds,120,2013-05-24 20:53:00
4:25 PM,82.4,73.4,74,30.04,10.0,ESE,12.7,-,N/A,,Mostly Cloudy,120,2013-05-24 21:25:00
4:53 PM,82.0,75.0,79,30.04,10.0,SE,13.8,-,N/A,,Overcast,130,2013-05-24 21:53:00
5:51 PM,80.6,73.4,79,30.04,10.0,ESE,12.7,-,N/A,,Mostly Cloudy,120,2013-05-24 22:51:00
5:53 PM,81.0,73.9,79,30.04,10.0,SE,12.7,-,N/A,,Mostly Cloudy,130,2013-05-24 22:53:00
6:50 PM,80.6,73.4,79,30.04,10.0,SE,11.5,-,N/A,,Mostly Cloudy,130,2013-05-24 23:50:00
6:53 PM,81.0,75.0,82,30.04,8.0,SE,11.5,-,0.00,Rain,Light Rain,130,2013-05-24 23:53:00
7:18 PM,80.6,75.2,84,30.04,10.0,SE,11.5,-,0.00,,Mostly Cloudy,140,2013-05-25 00:18:00
7:53 PM,80.1,75.0,85,30.04,9.0,SE,10.4,-,0.00,,Scattered Clouds,140,2013-05-25 00:53:00
8:53 PM,80.1,75.0,85,30.03,10.0,SE,12.7,-,N/A,,Scattered Clouds,130,2013-05-25 01:53:00
9:15 PM,80.6,75.2,84,30.03,10.0,SE,18.4,24.2,N/A,,Mostly Cloudy,130,2013-05-25 02:15:00
9:28 PM,80.6,75.2,84,30.03,10.0,ESE,17.3,-,N/A,,Scattered Clouds,120,2013-05-25 02:28:00
9:53 PM,80.1,75.0,85,30.04,10.0,SE,17.3,-,N/A,,Scattered Clouds,130,2013-05-25 02:53:00
10:53 PM,80.1,75.0,85,30.04,10.0,ESE,18.4,27.6,N/A,,Partly Cloudy,120,2013-05-25 03:53:00
11:53 PM,80.1,75.0,85,30.06,10.0,ESE,21.9,27.6,N/A,,Partly Cloudy,120,2013-05-25 04:53:00